Location: Noyers
(47.2770°N, 1.4032°E)
Time: 22:28:16
(UTC+00:00)

Cosmos 1825 Rocket - Pass Details

Date: 15 May 2026
Orbit: 598 x 622 km, 82.5° (Epoch: 11 June)

Event Time Altitude Azimuth Distance (km) Brightness Sun altitude
Rises 22:05:51 0° 345° (NNW) 2,874 8.5 -19.6°
Reaches altitude 10° 22:08:07 10° 340° (NNW) 1,969 7.4 -19.8°
Maximum altitude 22:12:18 47° 266° (W) 810 4.2 -20.1°
Enters shadow 22:13:53 32° 214° (SW) 1,060 4.5 -20.2°
